Location: Zapote
(9.9191°N, 84.0597°W)
Time: 05:03:31
(UTC-06:00)

Envisat - Pass Details

Date: 02 February 2021
Orbit: 764 x 766 km, 98.1° (Epoch: 09 March)

Event Time Altitude Azimuth Distance (km) Brightness Sun altitude
Rises 03:49:18 0° 49° (NE) 3,219 6.7 -31.6°
Reaches altitude 10° 03:53:46 10° 87° (E) 2,293 6.3 -30.5°
Maximum altitude 03:54:52 11° 99° (E) 2,247 6.3 -30.2°
Drops below altitude 10° 03:55:59 10° 112° (ESE) 2,293 6.4 -30.0°
Sets 04:00:25 0° 149° (SSE) 3,219 6.8 -28.9°
